Location: Treviso
(45.6669°N, 12.2430°E)
Time: 00:38:01
(UTC+02:00)

ISS - Pass Details

Date: 23 May 2017
Orbit: 402 x 408 km, 51.6° (Epoch: 30 May)

Event Time Altitude Azimuth Distance (km) Brightness Sun altitude
Rises 22:42:44 0° 228° (SW) 2,323 0.0 -15.9°
Reaches altitude 10° 22:44:50 10° 223° (SW) 1,465 -1.1 -16.1°
Maximum altitude 22:48:03 53° 146° (SE) 508 -3.8 -16.4°
Drops below altitude 10° 22:51:16 10° 68° (ENE) 1,470 -1.1 -16.7°
Sets 22:53:23 0° 64° (ENE) 2,332 0.0 -16.9°
